Simultaneous Nadir Overpasses (SNOs) Predictions

Prediction of SNOs between METOP-A and NPP Satellite Orbit:

Table of predicted SNOs for the next 14.0 days since TLE Epoch: 8/5/2014
Index Date (METOP-A) Time (METOP-A) Lat,Lon (METOP-A) SZA (METOP-A ) Date (NPP) Time (NPP) Lat,Lon (NPP) SZA (NPP ) Distance(km) Time Diff (sec)
1 08/19/2014 00:52:55 -73.91, -18.76 118.92 08/19/2014 00:51:49 -73.95, -22.00 118.73 99.83 66
2 08/19/2014 01:43:39 73.68, 148.02 60.88 08/19/2014 01:42:30 73.72, 145.87 61.03 67.40 69
3 08/19/2014 02:34:22 -73.65, -44.73 119.14 08/19/2014 02:33:12 -73.62, -46.58 119.07 57.78 70
4 08/19/2014 03:25:06 73.41, 122.06 60.66 08/19/2014 03:23:54 73.44, 121.16 60.74 28.75 72
5 08/19/2014 04:15:50 -73.33, -70.80 119.41 08/19/2014 04:14:36 -73.34, -71.29 119.36 15.72 74
6 08/19/2014 05:06:32 73.19, 96.23 60.49 08/19/2014 05:05:19 73.20, 96.32 60.51 3.01 73
7 08/19/2014 05:57:14 -73.21, -96.40 119.49 08/19/2014 05:56:03 -73.20, -96.36 119.49 1.80 71
8 08/19/2014 06:47:53 73.22, 70.96 60.54 08/19/2014 06:46:49 73.21, 70.92 60.54 1.74 64
9 08/19/2014 07:38:35 -73.19,-121.79 119.48 08/19/2014 07:37:32 -73.21,-121.76 119.45 2.61 63
10 08/19/2014 08:29:14 73.20, 45.58 60.54 08/19/2014 08:28:18 73.23, 45.52 60.58 3.16 56
11 08/19/2014 09:19:56 -73.22,-147.06 119.43 08/19/2014 09:19:02 -73.22,-147.16 119.41 3.43 54
12 08/19/2014 10:10:36 73.18, 20.20 60.55 08/19/2014 10:09:47 73.19, 20.23 60.56 1.05 49
13 08/19/2014 11:01:18 -73.20,-172.44
